Time,TemperatureF,DewpointF,PressureIn,WindDirection,WindDirectionDegrees,WindSpeedMPH,WindSpeedGustMPH,Humidity,HourlyPrecipIn,Conditions,Clouds,dailyrainin,SoftwareType,DateUTC
2013-07-28 00:03:00,54.5,48.7,29.62,SW,225,0.0,0.0,81,0.00,,,0.00,WUHU216HW,2013-07-28 07:03:00,
2013-07-28 00:08:00,54.5,48.7,29.62,SW,225,0.0,0.0,81,0.00,,,0.00,WUHU216HW,2013-07-28 07:08:00,
2013-07-28 00:13:00,54.3,48.6,29.62,SW,225,0.0,0.0,81,0.00,,,0.00,WUHU216HW,2013-07-28 07:13:00,
2013-07-28 00:18:00,54.1,48.4,29.62,SW,225,0.0,0.0,81,0.00,,,0.00,WUHU216HW,2013-07-28 07:18:00,
2013-07-28 00:23:00,53.9,48.5,29.62,SW,225,0.0,0.0,82,0.00,,,0.00,WUHU216HW,2013-07-28 07:23:00,
2013-07-28 00:28:00,53.7,48.4,29.61,SW,225,0.0,0.0,82,0.00,,,0.00,WUHU216HW,2013-07-28 07:28:00,
2013-07-28 00:33:00,53.7,48.4,29.62,SW,225,0.0,0.0,82,0.00,,,0.00,WUHU216HW,2013-07-28 07:33:00,
2013-07-28 00:38:00,53.4,48.0,29.62,SW,225,0.0,0.0,82,0.00,,,0.00,WUHU216HW,2013-07-28 07:38:00,
2013-07-28 00:43:00,53.4,48.0,29.61,SW,225,0.0,0.0,82,0.00,,,0.00,WUHU216HW,2013-07-28 07:43:00,
2013-07-28 00:48:00,53.2,47.9,29.62,SW,225,0.0,0.0,82,0.00,,,0.00,WUHU216HW,2013-07-28 07:48:00,
2013-07-28 00:53:00,53.2,48.2,29.62,SW,225,0.0,0.0,83,0.00,,,0.00,WUHU216HW,2013-07-28 07:53:00,
2013-07-28 00:58:00,52.8,47.8,29.61,SW,225,0.0,0.0,83,0.00,,,0.00,WUHU216HW,2013-07-28 07:58:00,
2013-07-28 01:03:00,52.8,47.8,29.61,SW,225,0.0,0.0,83,0.00,,,0.00,WUHU216HW,2013-07-28 08:03:00,
2013-07-28 01:08:00,52.5,47.4,29.62,SW,225,0.0,0.0,83,0.00,,,0.00,WUHU216HW,2013-07-28 08:08:00,
2013-07-28 01:13:00,52.3,47.3,29.62,SW,225,0.0,0.0,83,0.00,,,0.00,WUHU216HW,2013-07-28 08:13:00,
2013-07-28 01:19:00,52.3,47.3,29.62,SW,225,0.0,0.0,83,0.00,,,0.00,WUHU216HW,2013-07-28 08:19:00,
2013-07-28 01:24:00,52.1,47.1,29.61,SW,225,0.0,0.0,83,0.00,,,0.00,WUHU216HW,2013-07-28 08:24:00,
2013-07-28 01:29:00,51.9,46.9,29.62,SW,225,0.0,0.0,83,0.00,,,0.00,WUHU216HW,2013-07-28 08:29:00,
2013-07-28 01:34:00,51.6,46.9,29.62,SW,225,0.0,0.0,84,0.00,,,0.00,WUHU216HW,2013-07-28 08:34:00,
2013-07-28 01:39:00,51.6,46.9,29.61,SW,225,0.0,0.0,84,0.00,,,0.00,WUHU216HW,2013-07-28 08:39:00,
2013-07-28 01:44:00,51.4,46.7,29.61,SW,225,0.0,0.0,84,0.00,,,0.00,WUHU216HW,2013-07-28 08:44:00,
2013-07-28 01:49:00,51.4,46.7,29.62,SW,225,0.0,0.0,84,0.00,,,0.00,WUHU216HW,2013-07-28 08:49:00,
2013-07-28 01:54:00,51.2,46.5,29.61,SW,225,0.0,0.0,84,0.00,,,0.00,WUHU216HW,2013-07-28 08:54:00,
2013-07-28 01:59:00,50.9,46.1,29.61,SW,225,0.0,0.0,84,0.00,,,0.00,WUHU216HW,2013-07-28 08:59:00,
2013-07-28 02:04:00,50.9,46.1,29.61,SW,225,0.0,0.0,84,0.00,,,0.00,WUHU216HW,2013-07-28 09:04:00,
2013-07-28 02:09:00,50.9,46.1,29.61,SW,225,0.0,0.0,84,0.00,,,0.00,WUHU216HW,2013-07-28 09:09:00,
2013-07-28 02:14:00,50.7,46.3,29.62,SW,225,0.0,0.0,85,0.00,,,0.00,WUHU216HW,2013-07-28 09:14:00,
2013-07-28 02:19:00,50.5,46.1,29.62,SW,225,0.0,0.0,85,0.00,,,0.00,WUHU216HW,2013-07-28 09:19:00,
2013-07-28 02:24:00,50.3,45.9,29.62,SW,225,0.0,0.0,85,0.00,,,0.00,WUHU216HW,2013-07-28 09:24:00,
2013-07-28 02:29:00,50.1,45.7,29.61,SW,225,0.0,0.0,85,0.00,,,0.00,WUHU216HW,2013-07-28 09:29:00,
2013-07-28 02:34:00,50.1,45.7,29.61,SW,225,0.0,0.0,85,0.00,,,0.00,WUHU216HW,2013-07-28 09:34:00,
2013-07-28 02:39:00,50.1,45.7,29.62,SW,225,0.0,0.0,85,0.00,,,0.00,WUHU216HW,2013-07-28 09:39:00,
2013-07-28 02:44:00,49.8,45.4,29.61,SW,225,0.0,0.0,85,0.00,,,0.00,WUHU216HW,2013-07-28 09:44:00,
2013-07-28 02:49:00,49.8,45.4,29.61,SW,225,0.0,0.0,85,0.00,,,0.00,WUHU216HW,2013-07-28 09:49:00,
2013-07-28 02:54:00,49.8,45.4,29.61,SW,225,0.0,0.0,85,0.00,,,0.00,WUHU216HW,2013-07-28 09:54:00,
2013-07-28 02:59:00,49.8,45.4,29.61,SW,225,0.0,0.0,85,0.00,,,0.00,WUHU216HW,2013-07-28 09:59:00,
2013-07-28 03:09:00,49.6,45.2,29.61,SW,225,0.0,0.0,85,0.00,,,0.00,WUHU216HW,2013-07-28 10:09:00,
2013-07-28 03:14:00,49.6,45.5,29.61,SW,225,0.0,0.0,86,0.00,,,0.00,WUHU216HW,2013-07-28 10:14:00,
2013-07-28 03:19:00,49.6,45.2,29.61,SW,225,0.0,0.0,85,0.00,,,0.00,WUHU216HW,2013-07-28 10:19:00,
2013-07-28 03:24:00,49.6,45.2,29.61,SW,225,0.0,0.0,85,0.00,,,0.00,WUHU216HW,2013-07-28 10:24:00,
2013-07-28 03:29:00,49.6,45.5,29.61,SW,225,0.0,0.0,86,0.00,,,0.00,WUHU216HW,2013-07-28 10:29:00,
2013-07-28 03:34:00,49.4,45.3,29.61,SW,225,0.0,0.0,86,0.00,,,0.00,WUHU216HW,2013-07-28 10:34:00,
2013-07-28 03:39:00,49.2,45.2,29.61,SW,225,0.0,0.0,86,0.00,,,0.00,WUHU216HW,2013-07-28 10:39:00,
2013-07-28 03:44:00,49.2,45.2,29.61,SW,225,0.0,0.0,86,0.00,,,0.00,WUHU216HW,2013-07-28 10:44:00,
2013-07-28 03:49:00,49.2,45.2,29.61,SW,225,0.0,0.0,86,0.00,,,0.00,WUHU216HW,2013-07-28 10:49:00,
2013-07-28 03:54:00,49.2,45.2,29.61,SW,225,0.0,0.0,86,0.00,,,0.00,WUHU216HW,2013-07-28 10:54:00,
2013-07-28 03:59:00,49.1,45.0,29.61,SW,225,0.0,0.0,86,0.00,,,0.00,WUHU216HW,2013-07-28 10:59:00,
2013-07-28 04:04:00,49.1,45.0,29.61,SW,225,0.0,0.0,86,0.00,,,0.00,WUHU216HW,2013-07-28 11:04:00,
2013-07-28 04:09:00,49.1,45.3,29.62,SW,225,0.0,0.0,87,0.00,,,0.00,WUHU216HW,2013-07-28 11:09:00,
2013-07-28 04:14:00,49.1,45.3,29.62,SW,225,0.0,0.0,87,0.00,,,0.00,WUHU216HW,2013-07-28 11:14:00,
2013-07-28 04:19:00,49.1,45.3,29.62,SW,225,0.0,0.0,87,0.00,,,0.00,WUHU216HW,2013-07-28 11:19:00,
2013-07-28 04:24:00,49.1,45.3,29.61,SW,225,0.0,0.0,87,0.00,,,0.00,WUHU216HW,2013-07-28 11:24:00,
2013-07-28 04:29:00,49.2,45.5,29.62,SW,225,0.0,0.0,87,0.00,,,0.00,WUHU216HW,2013-07-28 11:29:00,
2013-07-28 04:34:00,49.2,45.5,29.61,SW,225,0.0,0.0,87,0.00,,,0.00,WUHU216HW,2013-07-28 11:34:00,
2013-07-28 04:39:00,49.1,45.3,29.61,SW,225,0.0,0.0,87,0.00,,,0.00,WUHU216HW,2013-07-28 11:39:00,
2013-07-28 04:44:00,49.1,45.3,29.61,SW,225,0.0,0.0,87,0.00,,,0.00,WUHU216HW,2013-07-28 11:44:00,
2013-07-28 04:49:00,48.9,45.1,29.61,SW,225,0.0,0.0,87,0.00,,,0.00,WUHU216HW,2013-07-28 11:49:00,
2013-07-28 04:54:00,48.9,45.1,29.61,SW,225,0.0,0.0,87,0.00,,,0.00,WUHU216HW,2013-07-28 11:54:00,
2013-07-28 04:59:00,48.7,45.0,29.61,SW,225,0.0,0.0,87,0.00,,,0.00,WUHU216HW,2013-07-28 11:59:00,
2013-07-28 05:04:00,48.7,45.0,29.61,SW,225,0.0,0.0,87,0.00,,,0.00,WUHU216HW,2013-07-28 12:04:00,
2013-07-28 05:09:00,48.5,44.8,29.61,SW,225,0.0,0.0,87,0.00,,,0.00,WUHU216HW,2013-07-28 12:09:00,
2013-07-28 05:14:00,48.5,44.8,29.61,SW,225,0.0,0.0,87,0.00,,,0.00,WUHU216HW,2013-07-28 12:14:00,
2013-07-28 05:19:00,48.7,45.0,29.61,SW,225,0.0,0.0,87,0.00,,,0.00,WUHU216HW,2013-07-28 12:19:00,
2013-07-28 05:24:00,48.5,44.8,29.61,SW,225,0.0,0.0,87,0.00,,,0.00,WUHU216HW,2013-07-28 12:24:00,
2013-07-28 05:29:00,48.5,44.8,29.61,SW,225,0.0,0.0,87,0.00,,,0.00,WUHU216HW,2013-07-28 12:29:00,
2013-07-28 05:39:00,48.3,44.6,29.61,SW,225,0.0,0.0,87,0.00,,,0.00,WUHU216HW,2013-07-28 12:39:00,
2013-07-28 05:44:00,48.0,44.3,29.61,SW,225,0.0,0.0,87,0.00,,,0.00,WUHU216HW,2013-07-28 12:44:00,
2013-07-28 05:49:00,48.0,44.3,29.61,SW,225,0.0,0.0,87,0.00,,,0.00,WUHU216HW,2013-07-28 12:49:00,
2013-07-28 05:54:00,48.0,44.3,29.61,SW,225,0.0,0.0,87,0.00,,,0.00,WUHU216HW,2013-07-28 12:54:00,
2013-07-28 05:59:00,47.8,44.1,29.61,SW,225,0.0,0.0,87,0.00,,,0.00,WUHU216HW,2013-07-28 12:59:00,
2013-07-28 06:04:00,47.8,44.1,29.61,SW,225,0.0,0.0,87,0.00,,,0.00,WUHU216HW,2013-07-28 13:04:00,
2013-07-28 06:09:00,47.6,43.9,29.61,SW,225,0.0,0.0,87,0.00,,,0.00,WUHU216HW,2013-07-28 13:09:00,
2013-07-28 06:14:00,47.4,43.8,29.61,SW,225,0.0,0.0,87,0.00,,,0.00,WUHU216HW,2013-07-28 13:14:00,
2013-07-28 06:19:00,47.3,43.6,29.62,SW,225,0.0,0.0,87,0.00,,,0.00,WUHU216HW,2013-07-28 13:19:00,
2013-07-28 06:24:00,47.3,43.6,29.62,SW,225,0.0,0.0,87,0.00,,,0.00,WUHU216HW,2013-07-28 13:24:00,
2013-07-28 06:29:00,47.1,43.7,29.61,SW,225,0.0,0.0,88,0.00,,,0.00,WUHU216HW,2013-07-28 13:29:00,
2013-07-28 06:34:00,47.1,43.7,29.62,SW,225,0.0,0.0,88,0.00,,,0.00,WUHU216HW,2013-07-28 13:34:00,
2013-07-28 06:39:00,47.1,43.4,29.62,SW,225,0.0,0.0,87,0.00,,,0.00,WUHU216HW,2013-07-28 13:39:00,
2013-07-28 06:44:00,47.1,43.4,29.61,SW,225,0.0,0.0,87,0.00,,,0.00,WUHU216HW,2013-07-28 13:44:00,
2013-07-28 06:49:00,47.1,43.7,29.62,SW,225,0.0,0.0,88,0.00,,,0.00,WUHU216HW,2013-07-28 13:49:00,
2013-07-28 06:54:00,46.9,43.6,29.62,SW,225,0.0,0.0,88,0.00,,,0.00,WUHU216HW,2013-07-28 13:54:00,
2013-07-28 06:59:00,47.1,43.4,29.61,SW,225,0.0,0.0,87,0.00,,,0.00,WUHU216HW,2013-07-28 13:59:00,
2013-07-28 07:04:00,46.9,43.3,29.62,SW,225,0.0,0.0,87,0.00,,,0.00,WUHU216HW,2013-07-28 14:04:00,
2013-07-28 07:09:00,47.1,43.7,29.62,SW,225,0.0,0.0,88,0.00,,,0.00,WUHU216HW,2013-07-28 14:09:00,
2013-07-28 07:14:00,47.1,43.7,29.62,SW,225,0.0,0.0,88,0.00,,,0.00,WUHU216HW,2013-07-28 14:14:00,
2013-07-28 07:19:00,47.1,43.7,29.62,SW,225,0.0,0.0,88,0.00,,,0.00,WUHU216HW,2013-07-28 14:19:00,
2013-07-28 07:24:00,47.1,43.7,29.62,SW,225,0.0,0.0,88,0.00,,,0.00,WUHU216HW,2013-07-28 14:24:00,
2013-07-28 07:29:00,47.1,43.7,29.62,SW,225,0.0,0.0,88,0.00,,,0.00,WUHU216HW,2013-07-28 14:29:00,
2013-07-28 07:34:00,47.3,43.9,29.62,SW,225,0.0,0.0,88,0.00,,,0.00,WUHU216HW,2013-07-28 14:34:00,
2013-07-28 07:39:00,47.4,44.1,29.61,SW,225,0.0,0.0,88,0.00,,,0.00,WUHU216HW,2013-07-28 14:39:00,
2013-07-28 07:44:00,47.4,44.1,29.62,SW,225,0.0,0.0,88,0.00,,,0.00,WUHU216HW,2013-07-28 14:44:00,
2013-07-28 07:49:00,47.8,44.4,29.62,SW,225,0.0,0.0,88,0.00,,,0.00,WUHU216HW,2013-07-28 14:49:00,
2013-07-28 07:54:00,47.8,44.4,29.62,SW,225,0.0,0.0,88,0.00,,,0.00,WUHU216HW,2013-07-28 14:54:00,
2013-07-28 07:59:00,48.0,44.6,29.61,SW,225,0.0,0.0,88,0.00,,,0.00,WUHU216HW,2013-07-28 14:59:00,
2013-07-28 08:04:00,48.0,44.6,29.61,SW,225,0.0,0.0,88,0.00,,,0.00,WUHU216HW,2013-07-28 15:04:00,
2013-07-28 08:09:00,48.2,44.8,29.62,SW,225,0.0,0.0,88,0.00,,,0.00,WUHU216HW,2013-07-28 15:09:00,
2013-07-28 08:14:00,48.3,45.0,29.62,SW,225,0.0,0.0,88,0.00,,,0.00,WUHU216HW,2013-07-28 15:14:00,
2013-07-28 08:19:00,48.7,45.6,29.61,SW,225,0.0,0.0,89,0.00,,,0.00,WUHU216HW,2013-07-28 15:19:00,
2013-07-28 08:24:00,49.1,45.9,29.61,SW,225,0.0,0.0,89,0.00,,,0.00,WUHU216HW,2013-07-28 15:24:00,
2013-07-28 08:29:00,49.6,46.7,29.62,SW,225,0.0,0.0,90,0.00,,,0.00,WUHU216HW,2013-07-28 15:29:00,
2013-07-28 08:34:00,49.6,46.7,29.61,SW,225,0.0,0.0,90,0.00,,,0.00,WUHU216HW,2013-07-28 15:34:00,
2013-07-28 08:39:00,51.0,48.2,29.61,SW,225,0.0,0.0,90,0.00,,,0.00,WUHU216HW,2013-07-28 15:39:00,
2013-07-28 08:44:00,52.8,49.6,29.61,SW,225,0.0,0.0,89,0.00,,,0.00,WUHU216HW,2013-07-28 15:44:00,
2013-07-28 08:49:00,53.4,50.2,29.62,SW,225,0.0,0.0,89,0.00,,,0.00,WUHU216HW,2013-07-28 15:49:00,
2013-07-28 08:54:00,54.5,50.9,29.61,SW,225,0.0,0.0,88,0.00,,,0.00,WUHU216HW,2013-07-28 15:54:00,
2013-07-28 08:59:00,55.0,51.1,29.61,SW,225,0.0,0.0,87,0.00,,,0.00,WUHU216HW,2013-07-28 15:59:00,
2013-07-28 09:04:00,55.2,51.3,29.61,SW,225,0.0,0.0,87,0.00,,,0.00,WUHU216HW,2013-07-28 16:04:00,
2013-07-28 09:09:00,55.2,51.0,29.61,SW,225,0.0,0.0,86,0.00,,,0.00,WUHU216HW,2013-07-28 16:09:00,
2013-07-28 09:14:00,55.5,51.0,29.61,SW,225,0.0,0.0,85,0.00,,,0.00,WUHU216HW,2013-07-28 16:14:00,
2013-07-28 09:19:00,55.9,51.4,29.61,SSW,203,0.0,0.0,85,0.00,,,0.00,WUHU216HW,2013-07-28 16:19:00,
2013-07-28 09:24:00,56.1,51.2,29.61,SSW,203,0.0,0.0,84,0.00,,,0.00,WUHU216HW,2013-07-28 16:24:00,
2013-07-28 09:29:00,56.3,51.8,29.61,SW,225,0.0,0.0,85,0.00,,,0.00,WUHU216HW,2013-07-28 16:29:00,
2013-07-28 09:34:00,56.4,52.0,29.61,SW,225,0.0,0.0,84,0.00,,,0.00,WUHU216HW,2013-07-28 16:34:00,
2013-07-28 09:39:00,56.8,52.0,29.61,North,0,0.0,0.0,84,0.00,,,0.00,WUHU216HW,2013-07-28 16:39:00,
2013-07-28 09:44:00,57.2,52.3,29.61,SSW,203,0.0,0.0,84,0.00,,,0.00,WUHU216HW,2013-07-28 16:44:00,
2013-07-28 09:49:00,57.3,51.9,29.61,SSW,203,0.0,0.0,82,0.00,,,0.00,WUHU216HW,2013-07-28 16:49:00,
2013-07-28 09:54:00,57.7,52.2,29.60,SSW,203,0.0,0.0,82,0.00,,,0.00,WUHU216HW,2013-07-28 16:54:00,
2013-07-28 09:59:00,58.1,52.6,29.61,SSW,203,0.0,0.0,82,0.00,,,0.00,WUHU216HW,2013-07-28 16:59:00,
2013-07-28 10:04:00,58.8,53.3,29.61,SSW,203,0.0,0.0,82,0.00,,,0.00,WUHU216HW,2013-07-28 17:04:00,
2013-07-28 10:09:00,59.7,54.2,29.61,SSW,203,0.0,0.0,82,0.00,,,0.00,WUHU216HW,2013-07-28 17:09:00,
2013-07-28 10:14:00,60.6,55.1,29.60,SE,135,0.0,0.0,82,0.00,,,0.00,WUHU216HW,2013-07-28 17:14:00,
2013-07-28 10:19:00,61.1,54.6,29.60,SE,135,0.0,0.0,79,0.00,,,0.00,WUHU216HW,2013-07-28 17:19:00,
2013-07-28 10:24:00,63.6,57.0,29.60,SE,135,0.0,0.0,79,0.00,,,0.00,WUHU216HW,2013-07-28 17:24:00,
2013-07-28 10:29:00,65.1,58.4,29.60,SW,225,0.0,0.0,79,0.00,,,0.00,WUHU216HW,2013-07-28 17:29:00,
2013-07-28 10:34:00,66.9,57.9,29.60,North,0,0.0,0.0,73,0.00,,,0.00,WUHU216HW,2013-07-28 17:34:00,
2013-07-28 10:39:00,68.1,58.4,29.60,North,0,0.0,0.0,71,0.00,,,0.00,WUHU216HW,2013-07-28 17:39:00,
2013-07-28 10:44:00,68.1,57.2,29.60,North,0,0.0,0.0,68,0.00,,,0.00,WUHU216HW,2013-07-28 17:44:00,
2013-07-28 10:49:00,69.8,58.2,29.60,NNE,23,0.0,0.0,67,0.00,,,0.00,WUHU216HW,2013-07-28 17:49:00,
2013-07-28 10:54:00,70.5,58.1,29.60,NNE,23,0.0,0.0,65,0.00,,,0.00,WUHU216HW,2013-07-28 17:54:00,
2013-07-28 10:59:00,71.6,58.3,29.60,WSW,248,0.0,0.0,63,0.00,,,0.00,WUHU216HW,2013-07-28 17:59:00,
2013-07-28 11:04:00,72.8,59.2,29.60,NNE,23,1.3,1.3,62,0.00,,,0.00,WUHU216HW,2013-07-28 18:04:00,
2013-07-28 11:09:00,73.5,58.8,29.60,North,0,1.5,1.5,60,0.00,,,0.00,WUHU216HW,2013-07-28 18:09:00,
2013-07-28 11:14:00,74.1,59.3,29.60,North,0,1.5,1.5,60,0.00,,,0.00,WUHU216HW,2013-07-28 18:14:00,
2013-07-28 11:19:00,75.7,59.7,29.60,North,0,1.5,1.5,58,0.00,,,0.00,WUHU216HW,2013-07-28 18:19:00,
2013-07-28 11:24:00,75.9,59.5,29.60,WNW,293,0.0,1.5,57,0.00,,,0.00,WUHU216HW,2013-07-28 18:24:00,
2013-07-28 11:29:00,76.4,59.5,29.59,WNW,293,0.0,0.0,56,0.00,,,0.00,WUHU216HW,2013-07-28 18:29:00,
2013-07-28 11:34:00,76.2,59.3,29.60,North,0,0.0,0.0,56,0.00,,,0.00,WUHU216HW,2013-07-28 18:34:00,
2013-07-28 11:39:00,76.8,59.8,29.60,North,0,0.0,0.0,56,0.00,,,0.00,WUHU216HW,2013-07-28 18:39:00,
2013-07-28 11:44:00,77.0,58.5,29.59,WSW,248,0.0,0.0,53,0.00,,,0.00,WUHU216HW,2013-07-28 18:44:00,
2013-07-28 11:49:00,76.8,58.8,29.60,SSW,203,0.0,0.0,54,0.00,,,0.00,WUHU216HW,2013-07-28 18:49:00,
2013-07-28 11:54:00,77.5,58.5,29.59,SSW,203,0.0,0.0,52,0.00,,,0.00,WUHU216HW,2013-07-28 18:54:00,
2013-07-28 11:59:00,77.9,58.8,29.60,SSW,203,0.0,0.0,52,0.00,,,0.00,WUHU216HW,2013-07-28 18:59:00,
2013-07-28 12:04:00,77.3,58.8,29.59,North,0,1.7,1.7,53,0.00,,,0.00,WUHU216HW,2013-07-28 19:04:00,
2013-07-28 12:09:00,78.2,59.1,29.60,North,0,1.7,1.7,52,0.00,,,0.00,WUHU216HW,2013-07-28 19:09:00,
2013-07-28 12:14:00,78.6,58.9,29.60,SSW,203,0.0,1.7,51,0.00,,,0.00,WUHU216HW,2013-07-28 19:14:00,
2013-07-28 12:19:00,78.6,58.9,29.60,SSW,203,0.0,1.7,50,0.00,,,0.00,WUHU216HW,2013-07-28 19:19:00,
2013-07-28 12:24:00,78.4,58.3,29.60,WNW,293,0.0,0.0,50,0.00,,,0.00,WUHU216HW,2013-07-28 19:24:00,
2013-07-28 12:29:00,78.6,58.4,29.60,WNW,293,0.0,0.0,50,0.00,,,0.00,WUHU216HW,2013-07-28 19:29:00,
2013-07-28 12:34:00,78.2,57.7,29.60,WNW,293,0.0,0.0,49,0.00,,,0.00,WUHU216HW,2013-07-28 19:34:00,
2013-07-28 12:39:00,77.5,58.0,29.59,North,0,0.0,0.0,51,0.00,,,0.00,WUHU216HW,2013-07-28 19:39:00,
2013-07-28 12:44:00,77.7,57.6,29.59,NW,315,0.0,0.0,50,0.00,,,0.00,WUHU216HW,2013-07-28 19:44:00,
2013-07-28 12:49:00,77.5,58.0,29.59,South,180,0.0,0.0,51,0.00,,,0.00,WUHU216HW,2013-07-28 19:49:00,
2013-07-28 12:54:00,78.0,57.9,29.59,West,270,0.0,0.0,50,0.00,,,0.00,WUHU216HW,2013-07-28 19:54:00,
2013-07-28 12:59:00,77.7,57.6,29.59,SE,135,0.0,0.0,50,0.00,,,0.00,WUHU216HW,2013-07-28 19:59:00,
2013-07-28 13:04:00,78.0,57.3,29.59,ENE,68,0.0,0.0,49,0.00,,,0.00,WUHU216HW,2013-07-28 20:04:00,
2013-07-28 13:09:00,77.5,57.5,29.59,SE,135,0.0,0.0,50,0.00,,,0.00,WUHU216HW,2013-07-28 20:09:00,
2013-07-28 13:14:00,77.5,57.5,29.59,North,0,0.0,0.0,50,0.00,,,0.00,WUHU216HW,2013-07-28 20:14:00,
2013-07-28 13:19:00,77.1,57.1,29.59,NW,315,0.0,0.0,50,0.00,,,0.00,WUHU216HW,2013-07-28 20:19:00,
2013-07-28 13:24:00,77.1,57.1,29.59,SSW,203,0.0,0.0,50,0.00,,,0.00,WUHU216HW,2013-07-28 20:24:00,
2013-07-28 13:29:00,76.8,56.8,29.59,NW,315,0.0,0.0,50,0.00,,,0.00,WUHU216HW,2013-07-28 20:29:00,
2013-07-28 13:34:00,76.4,57.0,29.59,South,180,0.0,0.0,51,0.00,,,0.00,WUHU216HW,2013-07-28 20:34:00,
2013-07-28 13:39:00,76.6,56.6,29.59,South,180,0.8,0.8,50,0.00,,,0.00,WUHU216HW,2013-07-28 20:39:00,
2013-07-28 13:44:00,76.2,57.3,29.59,West,270,0.0,0.8,52,0.00,,,0.00,WUHU216HW,2013-07-28 20:44:00,
2013-07-28 13:49:00,77.3,57.8,29.59,WNW,293,0.0,0.8,51,0.00,,,0.00,WUHU216HW,2013-07-28 20:49:00,
2013-07-28 13:54:00,77.5,58.0,29.59,West,270,0.0,0.0,51,0.00,,,0.00,WUHU216HW,2013-07-28 20:54:00,
2013-07-28 13:59:00,77.5,58.0,29.59,SSE,158,0.6,0.6,51,0.00,,,0.00,WUHU216HW,2013-07-28 20:59:00,
2013-07-28 14:04:00,76.8,57.3,29.59,SSE,158,0.6,0.6,51,0.00,,,0.00,WUHU216HW,2013-07-28 21:04:00,
2013-07-28 14:09:00,77.3,57.8,29.59,NNE,23,0.0,0.6,51,0.00,,,0.00,WUHU216HW,2013-07-28 21:09:00,
2013-07-28 14:14:00,77.7,58.1,29.59,ENE,68,0.0,0.6,51,0.00,,,0.00,WUHU216HW,2013-07-28 21:14:00,
2013-07-28 14:19:00,77.9,57.8,29.59,ENE,68,0.0,0.0,50,0.00,,,0.00,WUHU216HW,2013-07-28 21:19:00,
2013-07-28 14:24:00,76.8,57.3,29.59,SSW,203,0.0,0.0,51,0.00,,,0.00,WUHU216HW,2013-07-28 21:24:00,
2013-07-28 14:29:00,76.2,57.3,29.59,North,0,1.1,1.1,52,0.00,,,0.00,WUHU216HW,2013-07-28 21:29:00,
2013-07-28 14:34:00,75.3,56.0,29.59,West,270,0.0,1.1,51,0.00,,,0.00,WUHU216HW,2013-07-28 21:34:00,
2013-07-28 14:39:00,74.8,56.0,29.59,West,270,0.0,1.1,52,0.00,,,0.00,WUHU216HW,2013-07-28 21:39:00,
2013-07-28 14:44:00,74.4,56.1,29.59,ENE,68,0.0,0.0,53,0.00,,,0.00,WUHU216HW,2013-07-28 21:44:00,
2013-07-28 14:49:00,74.6,55.8,29.59,SE,135,0.0,0.0,52,0.00,,,0.00,WUHU216HW,2013-07-28 21:49:00,
2013-07-28 14:54:00,74.4,56.1,29.59,South,180,0.0,0.0,53,0.00,,,0.00,WUHU216HW,2013-07-28 21:54:00,
2013-07-28 14:59:00,74.4,56.1,29.59,West,270,0.0,0.0,53,0.00,,,0.00,WUHU216HW,2013-07-28 21:59:00,
2013-07-28 15:05:00,74.4,56.1,29.59,SSW,203,0.0,0.0,53,0.00,,,0.00,WUHU216HW,2013-07-28 22:05:00,
2013-07-28 15:10:00,73.5,55.2,29.59,WSW,248,0.0,0.0,53,0.00,,,0.00,WUHU216HW,2013-07-28 22:10:00,
2013-07-28 15:15:00,73.5,55.7,29.59,NW,315,0.0,0.0,54,0.00,,,0.00,WUHU216HW,2013-07-28 22:15:00,
2013-07-28 15:20:00,72.6,54.9,29.59,ENE,68,0.0,0.0,54,0.00,,,0.00,WUHU216HW,2013-07-28 22:20:00,
2013-07-28 15:25:00,72.3,55.1,29.59,SW,225,0.0,0.0,55,0.00,,,0.00,WUHU216HW,2013-07-28 22:25:00,
2013-07-28 15:30:00,71.9,55.3,29.59,SE,135,0.0,0.0,56,0.00,,,0.00,WUHU216HW,2013-07-28 22:30:00,
2013-07-28 15:35:00,71.7,55.6,29.59,West,270,0.0,0.0,57,0.00,,,0.00,WUHU216HW,2013-07-28 22:35:00,
2013-07-28 15:40:00,71.7,55.1,29.59,SW,225,0.0,0.0,56,0.00,,,0.00,WUHU216HW,2013-07-28 22:40:00,
2013-07-28 15:45:00,71.9,55.3,29.59,SSE,158,0.0,0.0,56,0.00,,,0.00,WUHU216HW,2013-07-28 22:45:00,
2013-07-28 15:50:00,71.7,55.1,29.59,West,270,0.0,0.0,56,0.00,,,0.00,WUHU216HW,2013-07-28 22:50:00,
2013-07-28 15:55:00,71.4,55.3,29.59,SSW,203,0.0,0.0,57,0.00,,,0.00,WUHU216HW,2013-07-28 22:55:00,
2013-07-28 16:00:00,71.7,55.1,29.59,SSW,203,0.0,0.0,56,0.00,,,0.00,WUHU216HW,2013-07-28 23:00:00,
2013-07-28 16:05:00,71.7,55.6,29.59,SSW,203,0.0,0.0,57,0.00,,,0.00,WUHU216HW,2013-07-28 23:05:00,
2013-07-28 16:10:00,71.4,55.3,29.59,North,0,0.0,0.0,57,0.00,,,0.00,WUHU216HW,2013-07-28 23:10:00,
2013-07-28 16:15:00,71.4,55.3,29.58,NNE,23,0.0,0.0,57,0.00,,,0.00,WUHU216HW,2013-07-28 23:15:00,
2013-07-28 16:20:00,71.7,55.6,29.58,South,180,0.0,0.0,57,0.00,,,0.00,WUHU216HW,2013-07-28 23:20:00,
2013-07-28 16:25:00,71.7,55.6,29.58,WNW,293,0.0,0.0,57,0.00,,,0.00,WUHU216HW,2013-07-28 23:25:00,
2013-07-28 16:30:00,72.1,55.9,29.58,WNW,293,0.0,0.0,57,0.00,,,0.00,WUHU216HW,2013-07-28 23:30:00,
2013-07-28 16:35:00,71.7,55.1,29.58,WSW,248,0.0,0.0,56,0.00,,,0.00,WUHU216HW,2013-07-28 23:35:00,
2013-07-28 16:40:00,71.2,54.6,29.58,SSW,203,0.0,0.0,56,0.00,,,0.00,WUHU216HW,2013-07-28 23:40:00,
2013-07-28 16:45:00,71.2,55.1,29.58,South,180,0.0,0.0,57,0.00,,,0.00,WUHU216HW,2013-07-28 23:45:00,
2013-07-28 16:50:00,71.2,55.1,29.57,South,180,0.0,0.0,57,0.00,,,0.00,WUHU216HW,2013-07-28 23:50:00,
2013-07-28 16:55:00,70.7,54.6,29.58,South,180,0.0,0.0,57,0.00,,,0.00,WUHU216HW,2013-07-28 23:55:00,
2013-07-28 17:00:00,70.7,54.6,29.58,South,180,0.0,0.0,57,0.00,,,0.00,WUHU216HW,2013-07-29 00:00:00,
2013-07-28 17:05:00,70.3,54.8,29.58,SW,225,0.0,0.0,58,0.00,,,0.00,WUHU216HW,2013-07-29 00:05:00,
2013-07-28 17:10:00,69.9,54.5,29.58,West,270,0.0,0.0,58,0.00,,,0.00,WUHU216HW,2013-07-29 00:10:00,
2013-07-28 17:15:00,70.3,54.8,29.57,WSW,248,0.0,0.0,58,0.00,,,0.00,WUHU216HW,2013-07-29 00:15:00,
2013-07-28 17:20:00,69.9,54.0,29.57,WSW,248,0.0,0.0,57,0.00,,,0.00,WUHU216HW,2013-07-29 00:20:00,
2013-07-28 17:25:00,69.6,54.2,29.57,South,180,0.0,0.0,58,0.00,,,0.00,WUHU216HW,2013-07-29 00:25:00,
2013-07-28 17:30:00,69.0,53.6,29.57,SSW,203,0.0,0.0,58,0.00,,,0.00,WUHU216HW,2013-07-29 00:30:00,
2013-07-28 17:35:00,68.7,53.8,29.57,WNW,293,0.0,0.0,59,0.00,,,0.00,WUHU216HW,2013-07-29 00:35:00,
2013-07-28 17:40:00,68.5,54.1,29.56,WNW,293,0.0,0.0,60,0.00,,,0.00,WUHU216HW,2013-07-29 00:40:00,
2013-07-28 17:45:00,68.1,54.1,29.57,WNW,293,0.0,0.0,61,0.00,,,0.00,WUHU216HW,2013-07-29 00:45:00,
2013-07-28 17:50:00,67.8,54.2,29.57,NW,315,0.0,0.0,62,0.00,,,0.00,WUHU216HW,2013-07-29 00:50:00,
2013-07-28 17:55:00,67.8,53.8,29.56,SW,225,0.0,0.0,61,0.00,,,0.00,WUHU216HW,2013-07-29 00:55:00,
2013-07-28 18:00:00,67.6,53.6,29.56,West,270,0.0,0.0,61,0.00,,,0.00,WUHU216HW,2013-07-29 01:00:00,
2013-07-28 18:05:00,67.2,53.7,29.56,South,180,1.1,1.1,62,0.00,,,0.00,WUHU216HW,2013-07-29 01:05:00,
2013-07-28 18:10:00,67.2,53.7,29.56,SSE,158,0.0,1.1,62,0.00,,,0.00,WUHU216HW,2013-07-29 01:10:00,
2013-07-28 18:15:00,66.9,53.4,29.56,WNW,293,0.0,1.1,62,0.00,,,0.00,WUHU216HW,2013-07-29 01:15:00,
2013-07-28 18:20:00,66.7,53.2,29.56,SW,225,0.0,0.0,62,0.00,,,0.00,WUHU216HW,2013-07-29 01:20:00,
2013-07-28 18:25:00,66.5,53.1,29.56,SSW,203,0.0,0.0,62,0.00,,,0.00,WUHU216HW,2013-07-29 01:25:00,
2013-07-28 18:30:00,66.3,52.9,29.56,SSW,203,0.0,0.0,62,0.00,,,0.00,WUHU216HW,2013-07-29 01:30:00,
2013-07-28 18:35:00,66.0,53.4,29.56,SSW,203,0.0,0.0,64,0.00,,,0.00,WUHU216HW,2013-07-29 01:35:00,
2013-07-28 18:40:00,66.0,53.4,29.56,SSW,203,0.0,0.0,64,0.00,,,0.00,WUHU216HW,2013-07-29 01:40:00,
2013-07-28 18:45:00,65.6,53.5,29.56,SW,225,0.0,0.0,65,0.00,,,0.00,WUHU216HW,2013-07-29 01:45:00,
2013-07-28 18:50:00,65.4,53.7,29.56,West,270,0.0,0.0,66,0.00,,,0.00,WUHU216HW,2013-07-29 01:50:00,
2013-07-28 18:55:00,65.4,53.7,29.56,West,270,0.0,0.0,66,0.00,,,0.00,WUHU216HW,2013-07-29 01:55:00,
2013-07-28 19:00:00,65.3,53.6,29.56,WNW,293,0.0,0.0,66,0.00,,,0.00,WUHU216HW,2013-07-29 02:00:00,
2013-07-28 19:05:00,65.1,53.4,29.56,NNE,23,0.0,0.0,66,0.00,,,0.00,WUHU216HW,2013-07-29 02:05:00,
2013-07-28 19:11:00,64.9,53.2,29.56,SSE,158,0.0,0.0,66,0.00,,,0.00,WUHU216HW,2013-07-29 02:11:00,
2013-07-28 19:16:00,64.7,53.0,29.57,South,180,0.0,0.0,66,0.00,,,0.00,WUHU216HW,2013-07-29 02:16:00,
2013-07-28 19:21:00,64.7,53.0,29.57,SSW,203,0.0,0.0,66,0.00,,,0.00,WUHU216HW,2013-07-29 02:21:00,
2013-07-28 19:26:00,64.2,53.0,29.57,WSW,248,0.0,0.0,67,0.00,,,0.00,WUHU216HW,2013-07-29 02:26:00,
2013-07-28 19:31:00,64.2,53.0,29.57,WSW,248,0.0,0.0,67,0.00,,,0.00,WUHU216HW,2013-07-29 02:31:00,
2013-07-28 19:36:00,64.0,52.8,29.57,WSW,248,0.0,0.0,67,0.00,,,0.00,WUHU216HW,2013-07-29 02:36:00,
2013-07-28 19:41:00,64.0,52.8,29.57,WSW,248,0.0,0.0,67,0.00,,,0.00,WUHU216HW,2013-07-29 02:41:00,
2013-07-28 19:46:00,63.8,53.0,29.57,SW,225,0.0,0.0,68,0.00,,,0.00,WUHU216HW,2013-07-29 02:46:00,
2013-07-28 19:51:00,63.5,52.7,29.56,South,180,0.0,0.0,68,0.00,,,0.00,WUHU216HW,2013-07-29 02:51:00,
2013-07-28 19:56:00,63.3,52.5,29.56,NNE,23,0.0,0.0,68,0.00,,,0.00,WUHU216HW,2013-07-29 02:56:00,
2013-07-28 20:01:00,63.1,52.3,29.56,NNE,23,0.0,0.0,68,0.00,,,0.00,WUHU216HW,2013-07-29 03:01:00,
2013-07-28 20:07:00,62.9,52.6,29.56,NNE,23,0.0,0.0,69,0.00,,,0.00,WUHU216HW,2013-07-29 03:07:00,
2013-07-28 20:12:00,62.7,52.4,29.56,NNE,23,0.0,0.0,69,0.00,,,0.00,WUHU216HW,2013-07-29 03:12:00,
2013-07-28 20:17:00,62.6,52.7,29.57,NNE,23,0.0,0.0,70,0.00,,,0.00,WUHU216HW,2013-07-29 03:17:00,
2013-07-28 20:22:00,62.4,52.5,29.56,NNE,23,0.0,0.0,70,0.00,,,0.00,WUHU216HW,2013-07-29 03:22:00,
2013-07-28 20:27:00,62.0,52.5,29.57,NNW,338,0.0,0.0,71,0.00,,,0.00,WUHU216HW,2013-07-29 03:27:00,
2013-07-28 20:32:00,61.8,52.4,29.57,NNW,338,0.0,0.0,71,0.00,,,0.00,WUHU216HW,2013-07-29 03:32:00,
2013-07-28 20:37:00,61.8,52.4,29.57,NNW,338,0.0,0.0,71,0.00,,,0.00,WUHU216HW,2013-07-29 03:37:00,
2013-07-28 20:42:00,61.3,52.2,29.57,NNW,338,0.0,0.0,72,0.00,,,0.00,WUHU216HW,2013-07-29 03:42:00,
2013-07-28 20:47:00,61.1,52.1,29.57,NNW,338,0.0,0.0,72,0.00,,,0.00,WUHU216HW,2013-07-29 03:47:00,
2013-07-28 20:52:00,61.1,52.4,29.57,NNW,338,0.0,0.0,73,0.00,,,0.00,WUHU216HW,2013-07-29 03:52:00,
2013-07-28 20:57:00,60.9,52.6,29.57,NNW,338,0.0,0.0,74,0.00,,,0.00,WUHU216HW,2013-07-29 03:57:00,
2013-07-28 21:02:00,60.6,51.9,29.58,NNW,338,0.0,0.0,73,0.00,,,0.00,WUHU216HW,2013-07-29 04:02:00,
2013-07-28 21:07:00,60.6,52.3,29.57,NNW,338,0.0,0.0,74,0.00,,,0.00,WUHU216HW,2013-07-29 04:07:00,
2013-07-28 21:12:00,60.4,52.1,29.58,NNW,338,0.0,0.0,74,0.00,,,0.00,WUHU216HW,2013-07-29 04:12:00,
2013-07-28 21:17:00,60.0,51.8,29.58,NNW,338,0.0,0.0,74,0.00,,,0.00,WUHU216HW,2013-07-29 04:17:00,
2013-07-28 21:22:00,60.0,51.8,29.58,NNW,338,0.0,0.0,74,0.00,,,0.00,WUHU216HW,2013-07-29 04:22:00,
2013-07-28 21:27:00,60.0,51.8,29.59,NNW,338,0.0,0.0,74,0.00,,,0.00,WUHU216HW,2013-07-29 04:27:00,
2013-07-28 21:32:00,59.7,51.8,29.58,NNW,338,0.0,0.0,75,0.00,,,0.00,WUHU216HW,2013-07-29 04:32:00,
2013-07-28 21:37:00,59.7,51.8,29.58,NNW,338,0.0,0.0,75,0.00,,,0.00,WUHU216HW,2013-07-29 04:37:00,
2013-07-28 21:42:00,59.3,51.6,29.58,NNW,338,0.0,0.0,75,0.00,,,0.00,WUHU216HW,2013-07-29 04:42:00,
2013-07-28 21:47:00,59.1,51.2,29.59,NNW,338,0.0,0.0,75,0.00,,,0.00,WUHU216HW,2013-07-29 04:47:00,
2013-07-28 21:52:00,58.8,50.9,29.59,NNW,338,0.0,0.0,75,0.00,,,0.00,WUHU216HW,2013-07-29 04:52:00,
2013-07-28 21:58:00,58.8,50.9,29.58,NNW,338,0.0,0.0,76,0.00,,,0.00,WUHU216HW,2013-07-29 04:58:00,
2013-07-28 22:03:00,58.6,51.0,29.59,SSW,203,0.0,0.0,76,0.00,,,0.00,WUHU216HW,2013-07-29 05:03:00,
2013-07-28 22:08:00,58.4,50.9,29.59,SW,225,0.0,0.0,76,0.00,,,0.00,WUHU216HW,2013-07-29 05:08:00,
2013-07-28 22:13:00,58.2,51.0,29.59,WSW,248,0.0,0.0,77,0.00,,,0.00,WUHU216HW,2013-07-29 05:13:00,
2013-07-28 22:18:00,57.9,50.7,29.59,NW,315,0.0,0.0,77,0.00,,,0.00,WUHU216HW,2013-07-29 05:18:00,
2013-07-28 22:23:00,57.7,50.5,29.59,WNW,293,0.0,0.0,77,0.00,,,0.00,WUHU216HW,2013-07-29 05:23:00,
2013-07-28 22:28:00,57.5,50.9,29.59,WSW,248,0.0,0.0,78,0.00,,,0.00,WUHU216HW,2013-07-29 05:28:00,
2013-07-28 22:33:00,57.3,50.5,29.59,WSW,248,0.0,0.0,78,0.00,,,0.00,WUHU216HW,2013-07-29 05:33:00,
2013-07-28 22:38:00,57.2,50.3,29.59,WNW,293,0.0,0.0,78,0.00,,,0.00,WUHU216HW,2013-07-29 05:38:00,
2013-07-28 22:43:00,57.0,50.1,29.59,WNW,293,0.0,0.0,78,0.00,,,0.00,WUHU216HW,2013-07-29 05:43:00,
2013-07-28 22:48:00,56.8,50.0,29.59,WNW,293,0.0,0.0,78,0.00,,,0.00,WUHU216HW,2013-07-29 05:48:00,
2013-07-28 22:53:00,56.6,49.8,29.59,WNW,293,0.0,0.0,78,0.00,,,0.00,WUHU216HW,2013-07-29 05:53:00,
2013-07-28 22:58:00,56.6,50.1,29.59,WNW,293,0.0,0.0,79,0.00,,,0.00,WUHU216HW,2013-07-29 05:58:00,
2013-07-28 23:03:00,56.4,50.0,29.58,WNW,293,0.0,0.0,79,0.00,,,0.00,WUHU216HW,2013-07-29 06:03:00,
2013-07-28 23:08:00,56.4,50.0,29.59,WNW,293,0.0,0.0,79,0.00,,,0.00,WUHU216HW,2013-07-29 06:08:00,
2013-07-28 23:13:00,56.4,50.3,29.59,WNW,293,0.0,0.0,80,0.00,,,0.00,WUHU216HW,2013-07-29 06:13:00,
2013-07-28 23:18:00,56.4,50.3,29.59,WNW,293,0.0,0.0,80,0.00,,,0.00,WUHU216HW,2013-07-29 06:18:00,
2013-07-28 23:23:00,56.4,50.3,29.59,WNW,293,0.0,0.0,80,0.00,,,0.00,WUHU216HW,2013-07-29 06:23:00,
2013-07-28 23:28:00,56.4,50.1,29.59,WNW,293,0.0,0.0,80,0.00,,,0.00,WUHU216HW,2013-07-29 06:28:00,
2013-07-28 23:33:00,56.3,50.1,29.59,WNW,293,0.0,0.0,80,0.00,,,0.00,WUHU216HW,2013-07-29 06:33:00,
2013-07-28 23:38:00,56.1,50.0,29.59,WNW,293,0.0,0.0,80,0.00,,,0.00,WUHU216HW,2013-07-29 06:38:00,
2013-07-28 23:43:00,55.9,49.8,29.59,WNW,293,0.0,0.0,80,0.00,,,0.00,WUHU216HW,2013-07-29 06:43:00,
2013-07-28 23:48:00,55.9,49.8,29.59,WNW,293,0.0,0.0,80,0.00,,,0.00,WUHU216HW,2013-07-29 06:48:00,
2013-07-28 23:53:00,55.9,49.8,29.59,WNW,293,0.0,0.0,80,0.00,,,0.00,WUHU216HW,2013-07-29 06:53:00,
2013-07-28 23:58:00,55.9,49.8,29.59,WNW,293,0.0,0.0,80,0.00,,,0.00,WUHU216HW,2013-07-29 06:58:00,